Погода в Нижней Кумашке

Россия / Чувашская Республика     55°34′32″N   46°19′57″E
темп.,
°C
ветер,
м/с
пор.,
м/с
влажн.,
%
обл.,
%
осадки,
мм/ч
давл.,
гПа
погр.,
м
20 июня, вс
вс2000:00+16з38955 0.0 1022144
03:00+15з23925 0.0 102360
06:00+19зсз24795 0.0 1023171
09:00+24зсз34645 0.0 1023574
12:00+28зсз34555 0.0 10231348
15:00+28зсз33540 0.0 10221613
18:00+26з24695 0.0 1021259
21:00+21зюз22890 0.0 102215
21 июня, пн
пн2100:00+19юз11920 0.0 102211
03:00+17ююз11930 0.0 102311
06:00+21юз23815 0.0 1023146
09:00+26зюз23610 0.0 1023607
12:00+28з33510 0.0 10221326
15:00+29з33515 0.0 10221431
18:00+27з24685 0.0 1021220
21:00+21зюз118415 0.0 102211
22 июня, вт
вт2200:00+20зюз11885 0.0 102211
03:00+19зюз119310 0.0 102311
06:00+22зюз128098 0.0 1023134
09:00+26з2265100 0.0 1023520
12:00+29з22525 0.0 10221513
15:00+30з224994 0.0 10221864
18:00+28зюз23660 0.0 1021126
21:00+22зюз11830 0.0 102111
23 июня, ср
ср2300:00+20зюз11900 0.0 102211
03:00+19юз11890 0.0 102211
06:00+22зюз12780 0.0 1022132
09:00+27з23600 0.0 1021627
12:00+30зсз33471 0.0 10211783
15:00+30з44470 0.0 10202020
18:00+28з356639 0.1 1020366
21:00+21зюз3785100 0.9 1020117
24 июня, чт
чт2400:00+21зсз258788 0.1 102091
03:00+20зсз258843 0.1 102092
06:00+21зсз0192100 1.6 102093
09:00+27сз24676 1.6 1019443
12:00+28ссз456871 1.3 1019752
15:00+29з137097 6.3 1019598
18:00+27з118117 1.6 101817
21:00+21юз259598 2.6 101899